This is the latest recevied weather packets stored in our database for station/object K5VP. If no packets are shown the sender has not sent any weather packets the latest 10 day(s).
| Time | Temp. | Humidity | Pressure | Rain* | Wind** | Luminosity | Snow |
|---|---|---|---|---|---|---|---|
| 1777931382 | 27.22° C | 38% | 1010.4 hPa | 0 mm | - | - | - |
| 1777930999 | 27.78° C | 37% | 1010.2 hPa | 0 mm | - | - | - |
| 1777930620 | 27.78° C | 39% | 1010.2 hPa | 0 mm | - | - | - |
| 1777930226 | 27.78° C | 38% | 1010.2 hPa | 0 mm | - | - | - |
| 1777929837 | 27.78° C | 37% | 1010.2 hPa | 0 mm | - | - | - |
| 1777929464 | 27.78° C | 37% | 1010.2 hPa | 0 mm | - | - | - |
| 1777929082 | 27.78° C | 37% | 1010.2 hPa | 0 mm | - | - | - |
| 1777928700 | 27.78° C | 39% | 1010.3 hPa | 0 mm | - | - | - |
| 1777928310 | 27.78° C | 39% | 1010.3 hPa | 0 mm | - | - | - |
| 1777927913 | 27.78° C | 37% | 1010.3 hPa | 0 mm | - | - | - |
| 1777927532 | 27.78° C | 38% | 1010.6 hPa | 0 mm | - | - | - |
| 1777927162 | 27.78° C | 39% | 1010.4 hPa | 0 mm | - | - | - |
| 1777926773 | 28.33° C | 38% | 1010.5 hPa | 0 mm | - | - | - |
| 1777926394 | 28.33° C | 41% | 1010.6 hPa | 0 mm | - | - | - |
| 1777926024 | 28.33° C | 39% | 1010.7 hPa | 0 mm | - | - | - |
| 1777925651 | 27.78° C | 39% | 1010.7 hPa | 0 mm | - | - | - |
| 1777925260 | 27.78° C | 38% | 1010.9 hPa | 0 mm | - | - | - |
| 1777924892 | 27.78° C | 38% | 1010.9 hPa | 0 mm | - | - | - |
| 1777924512 | 27.78° C | 38% | 1011 hPa | 0 mm | - | - | - |
| 1777924127 | 27.78° C | 39% | 1011.1 hPa | 0 mm | - | - | - |
| 1777923733 | 27.78° C | 38% | 1011.1 hPa | 0 mm | - | - | - |
| 1777923348 | 27.78° C | 38% | 1011.2 hPa | 0 mm | - | - | - |
| 1777922952 | 27.78° C | 41% | 1011.3 hPa | 0 mm | - | - | - |
| 1777922572 | 27.78° C | 38% | 1011.5 hPa | 0 mm | - | - | - |
| 1777922199 | 27.78° C | 40% | 1011.5 hPa | 0 mm | - | - | - |
* Rain latest hour (hover to see other rain measurements)
** Current wind speed in m/s (hover to see current wind gust speed)